Temp
15 15 15 15 15 14 14 14 14 14 14 14 14 14 14 14 14 13 13 13 13 13 13 13 13 13 13 13 13 13 13 13 13 13 13 13 13 13 13 13 13 13 13 13 13 13 13 12 12 11 12 12 12 12 12 11 11 11 12 12 11 11 11 11 11 11 11 11 11
14 14 14 14 14 14 14 14 14 14 14 14 14 14 14 13 13 13 13 13 13 13 13 13 13 13 13 13 13 13 13 13 13 13 13 13 13 13 13 13 12 13 13 13 13 12 12 12 11 11 11 11 12 12 12 11 11 11 11 11 11 11 11 11 11 11 11 11 11
14 14 14 14 14 14 14 14 13 13 13 13 13 13 13 13 13 13 13 13 13 13 13 13 13 13 12 13 13 13 13 13 13 13 13 13 12 12 12 12 12 12 12 12 12 12 12 11 11 11 11 11 12 12 11 11 11 11 11 11 11 11 11 11 11 11 11 11 10
13 13 13 13 13 13 13 13 13 13 13 13 13 13 13 12 12 12 12 12 12 12 12 12 12 12 12 12 12 12 12 12 12 12 12 12 12 12 12 11 12 12 12 12 12 12 11 11 11 11 12 12 12 11 11 11 11 11 11 11 11 11 11 11 11 11 11 10 10
13 13 13 13 13 13 12 12 12 12 12 12 12 12 12 12 12 12 12 12 12 12 12 12 12 12 12 12 12 12 12 12 12 12 12 12 12 12 11 11 11 11 11 11 11 11 11 11 11 11 11 11 11 11 11 11 11 11 11 11 11 11 11 10 10 10 11 10 10
12 12 12 12 12 12 12 12 12 12 12 12 12 12 12 12 12 11 11 11 11 11 11 11 11 11 11 11 11 11 11 11 12 12 12 12 12 11 11 11 11 11 11 11 11 11 11 11 11 11 11 11 11 11 11 11 11 11 11 11 11 11 11 10 10 10 10 10 10
11 11 11 11 11 11 11 11 11 11 11 11 11 11 11 11 11 11 11 11 11 11 11 11 11 11 11 11 11 11 11 11 11 11 11 11 11 11 11 11 11 11 11 11 11 11 11 11 11 11 11 11 11 11 11 11 11 11 11 11 11 11 10 10 10 10 10 9 9
11 11 10 10 10 10 10 10 10 11 11 11 11 11 11 11 11 11 11 11 11 11 11 11 11 11 11 11 11 11 11 11 11 11 11 11 11 11 11 11 11 11 11 11 11 11 11 10 10 11 11 11 11 11 11 11 10 10 10 10 10 10 10 10 10 10 10 9 9
10 10 10 10 10 10 10 10 10 10 10 10 10 10 10 10 10 10 10 10 10 10 10 10 10 10 10 10 10 10 11 11 11 11 11 11 11 11 11 11 11 11 11 11 11 11 10 10 10 10 10 10 10 10 10 10 10 10 10 10 10 10 10 10 10 10 9 9 9
10 10 9 9 9 9 9 9 9 10 10 10 10 10 10 10 10 10 10 10 10 10 10 10 10 10 10 10 10 10 10 10 10 10 10 10 10 11 11 11 11 10 10 10 10 10 10 10 10 10 10 10 10 10 10 10 9 9 9 9 9 9 9 9 9 9 9 9 9
9 9 9 9 9 9 9 9 9 9 9 9 9 9 10 10 10 10 10 10 10 10 10 10 10 10 10 10 10 10 10 10 10 10 10 10 10 10 10 10 10 10 10 10 10 10 10 10 10 10 10 10 10 10 10 9 9 9 9 9 9 9 9 9 9 9 9 9 10
9 9 9 9 9 9 9 9 9 9 9 9 9 9 9 9 9 9 10 10 10 10 10 10 10 10 10 10 10 10 10 10 10 10 10 10 10 10 10 10 10 10 10 9 9 9 9 9 9 9 9 9 9 10 9 9 9 9 9 9 9 9 9 9 9 9 9 10 10
9 9 9 8 8 8 9 9 9 9 9 9 9 9 9 9 9 9 9 9 9 9 10 10 10 10 10 10 10 10 10 10 10 10 10 10 10 10 9 9 9 9 9 9 8 8 8 9 9 9 9 9 9 9 9 9 9 9 9 9 9 9 10 10 10 10 9 9 9
9 8 8 8 8 8 8 8 8 8 9 9 9 9 9 9 9 9 9 9 9 9 9 9 9 9 9 9 10 10 10 10 10 10 10 9 9 9 9 9 9 9 9 9 9 9 9 9 9 9 9 9 9 9 9 9 9 9 10 10 10 10 9 9 9 9 9 9 8
8 8 8 8 8 8 8 8 8 8 8 8 8 8 8 9 9 9 9 9 9 9 9 9 9 9 9 9 9 9 9 9 9 9 9 9 9 9 9 9 9 9 9 9 9 9 9 9 9 9 9 9 9 9 9 10 10 10 9 9 9 9 9 9 9 8 8 8 8
8 8 8 8 8 8 8 8 8 8 8 8 8 8 8 8 8 8 8 8 8 8 9 9 9 9 9 9 9 9 9 9 9 9 9 9 9 9 9 9 9 9 9 9 9 9 9 9 9 9 9 9 9 9 9 9 9 9 9 9 9 9 8 8 8 8 7 7 7
7 7 7 7 7 7 7 7 7 7 7 8 8 8 8 8 8 8 8 8 8 8 8 8 8 9 9 9 9 9 9 9 9 9 9 9 9 9 9 9 9 9 9 9 9 9 9 9 9 9 9 9 9 9 9 9 9 9 9 8 8 8 8 8 7 7 7 7 7
7 7 7 7 7 7 7 7 7 7 7 7 7 7 7 8 8 8 8 8 8 8 8 8 8 8 8 8 8 9 9 9 9 9 9 9 9 9 9 9 9 9 9 9 9 9 9 9 9 9 9 9 9 9 9 8 8 8 8 8 8 7 7 7 7 7 7 6 6
6 6 6 6 6 6 6 6 7 7 7 7 7 7 7 7 7 7 7 7 8 8 8 8 8 8 8 8 8 8 8 8 8 8 8 8 8 8 9 9 9 9 9 9 9 9 9 9 9 9 9 9 9 8 8 8 8 7 7 7 7 7 7 6 6 6 6 6 6
6 6 6 6 6 6 6 6 6 6 6 6 7 7 7 7 7 7 7 7 7 7 7 7 8 8 8 8 8 8 8 8 8 8 8 8 8 8 8 8 8 9 9 9 9 9 9 9 9 8 8 8 8 8 7 7 7 7 7 6 6 6 6 6 6 6 6 6 6
5 5 5 5 5 5 5 6 6 6 6 6 6 6 6 6 7 7 7 7 7 7 7 7 7 8 8 8 8 8 8 8 8 8 8 8 8 8 8 8 8 8 8 8 8 8 8 8 8 8 7 7 7 7 7 6 6 6 6 6 6 6 6 6 6 6 5 5 5
5 5 5 5 5 5 5 5 5 5 6 6 6 6 6 6 6 6 7 7 7 7 7 7 7 7 8 8 8 8 8 8 8 8 8 8 8 8 8 8 8 8 8 8 7 7 7 7 7 7 7 7 6 6 6 6 6 6 6 5 5 5 5 5 5 5 5 5 5
4 4 4 4 4 4 5 5 5 5 5 5 6 6 6 6 6 6 6 7 7 7 7 7 7 7 7 7 7 7 7 8 7 7 7 7 7 8 7 7 7 7 7 7 7 7 6 6 6 6 6 6 6 6 5 5 5 5 5 5 5 5 5 5 5 5 5 4 4
3 3 4 4 4 4 4 4 5 5 5 5 5 6 6 6 6 6 6 6 7 7 7 7 7 7 7 7 7 7 7 7 7 7 7 7 7 7 7 7 7 6 6 6 6 6 6 6 6 5 5 5 5 5 5 5 5 5 5 5 5 5 5 4 4 4 4 4 4
3 3 3 3 3 3 4 4 4 5 5 5 5 5 6 6 6 6 6 6 6 7 7 7 7 7 7 7 7 7 7 6 6 6 6 6 6 6 6 6 6 6 6 5 5 5 5 5 5 5 5 5 5 5 5 5 4 4 4 4 4 4 4 4 4 4 4 3 3
3 3 3 3 3 3 3 4 4 4 5 5 5 5 5 6 6 6 6 6 6 6 7 7 7 7 7 6 6 6 6 6 6 6 6 6 6 6 6 5 5 5 5 5 5 5 5 5 5 4 4 4 4 4 4 4 4 4 4 4 4 4 4 3 3 3 3 3 3
2 2 2 2 2 3 3 4 4 5 5 5 5 5 5 6 6 6 6 6 6 6 6 6 6 6 6 6 6 6 6 6 6 6 6 5 5 5 5 5 5 5 5 5 5 4 4 4 4 4 4 4 4 4 4 4 4 4 4 3 3 3 3 3 3 3 3 3 2
2 2 2 2 2 3 3 4 4 5 5 5 5 5 5 6 6 6 6 6 6 6 6 6 6 6 6 6 6 6 6 5 5 5 5 5 5 5 5 4 4 4 4 4 4 4 4 4 4 4 4 4 4 4 3 3 3 3 3 3 3 3 3 3 2 2 2 2 2
2 2 2 2 2 2 3 3 4 4 5 5 5 5 5 5 5 5 5 5 5 5 6 6 6 5 5 5 5 5 5 5 5 5 5 5 5 4 4 4 4 4 4 4 4 4 4 4 4 4 3 3 3 3 3 3 3 3 3 3 2 2 2 2 2 2 2 2 2
2 2 2 2 2 2 2 3 4 4 4 5 5 5 5 5 5 5 5 5 5 5 5 5 5 5 5 5 5 5 5 5 5 5 5 4 4 4 4 4 4 4 4 4 4 4 3 3 3 3 3 3 3 3 2 2 2 2 2 2 2 2 2 2 2 2 2 2 2
2 2 1 1 1 2 2 3 3 4 4 4 4 5 5 5 4 4 4 4 4 5 5 5 5 5 5 5 5 5 5 5 4 4 4 4 4 4 4 4 4 4 4 3 3 3 3 3 3 3 2 2 2 2 2 2 2 2 2 2 2 2 2 2 2 2 2 1 1
2 1 1 1 1 2 2 2 3 3 3 4 4 4 4 4 4 4 4 4 4 4 4 5 5 5 5 5 5 4 4 4 4 4 4 4 4 4 4 3 3 3 3 3 3 3 2 2 2 2 2 2 2 2 2 2 2 2 2 2 2 2 2 2 2 2 1 1 1
1 1 1 1 1 1 2 2 2 3 3 3 3 3 3 3 3 3 3 4 4 4 4 4 5 5 5 4 4 4 4 4 4 4 3 3 3 3 3 3 3 3 2 2 2 2 2 2 2 2 2 2 2 2 2 2 2 2 2 2 2 2 2 2 1 1 1 1 1
1 1 1 1 1 1 2 2 2 2 2 2 2 2 3 3 3 3 3 3 3 4 4 4 4 4 4 4 4 3 3 3 3 3 3 3 3 3 3 2 2 2 2 2 2 2 2 2 2 2 2 2 2 2 2 2 2 2 2 2 2 2 1 1 1 1 1 1 1
1 1 1 1 1 1 1 1 1 1 1 2 2 2 2 2 3 3 3 3 3 3 3 3 3 3 3 3 3 3 3 3 3 3 3 2 2 2 2 2 2 2 2 2 2 2 2 2 2 2 2 2 2 2 2 2 2 2 1 1 1 1 1 1 1 1 1 1 1
1 0 1 1 1 1 1 1 1 1 1 1 2 2 2 2 2 2 3 3 3 3 3 3 3 3 3 3 3 3 2 2 2 2 2 2 2 2 2 2 2 2 2 2 2 2 2 2 2 2 2 2 2 2 2 2 1 1 1 1 1 1 1 1 1 1 1 1 1
0 0 0 0 1 1 1 0 0 0 1 1 1 2 2 2 2 2 2 3 3 3 3 3 3 3 2 2 2 2 2 2 2 2 2 2 1 1 2 2 2 2 2 2 2 2 2 2 2 2 2 2 2 1 1 1 1 1 1 1 1 1 1 1 1 1 1 1 1
-0 -0 -0 0 0 0 0 0 0 0 1 1 1 1 2 2 2 2 2 2 2 2 2 2 2 2 2 2 2 2 2 2 2 1 1 1 1 1 1 2 2 2 2 2 2 2 2 2 2 2 1 1 1 1 1 1 1 1 1 1 1 1 1 1 1 1 1 1 1
-1 -1 -0 -0 -0 -0 -0 -0 -0 0 0 1 1 1 1 2 2 2 2 2 2 2 2 2 2 2 2 2 2 2 1 1 1 1 1 1 1 1 1 2 2 2 2 2 2 2 1 1 1 1 1 1 1 1 1 1 1 1 1 1 1 1 1 1 1 1 1 0 0
-1 -1 -1 -1 -1 -1 -1 -0 -0 -0 -0 0 1 1 1 1 1 2 2 2 2 2 2 2 1 1 1 1 1 1 1 1 1 1 1 1 1 1 1 1 2 2 2 2 1 1 1 1 1 1 1 1 1 1 1 0 0 0 1 1 1 1 1 1 1 0 0 -0 -1
-1 -1 -1 -1 -1 -1 -1 -1 -0 -0 -0 -0 0 1 1 1 1 1 1 2 2 1 1 1 1 1 1 1 1 1 1 1 1 1 1 1 1 2 1 1 1 2 2 2 1 1 1 1 1 1 1 1 0 0 0 0 0 0 0 0 0 0 0 0 0 -0 -0 -1 -1
Height
1529 1530 1530 1530 1530 1531 1531 1531 1531 1531 1531 1531 1531 1531 1531 1531 1531 1531 1531 1532 1532 1532 1532 1532 1533 1533 1533 1533 1533 1533 1533 1533 1533 1533 1533 1533 1533 1533 1533 1534 1534 1535 1535 1536 1536 1536 1536 1536 1536 1537 1537 1538 1538 1538 1538 1539 1539 1539 1539 1539 1539 1539 1540 1540 1540 1541 1541 1541 1541
1528 1528 1529 1529 1529 1529 1529 1529 1529 1529 1529 1529 1530 1530 1530 1530 1530 1530 1530 1531 1531 1531 1531 1531 1531 1531 1531 1531 1532 1532 1532 1532 1532 1532 1532 1532 1532 1532 1532 1532 1533 1533 1533 1534 1534 1535 1535 1535 1535 1536 1536 1536 1537 1537 1537 1537 1537 1537 1538 1538 1538 1538 1538 1539 1539 1539 1539 1540 1540
1527 1527 1527 1528 1528 1528 1528 1528 1528 1528 1528 1528 1528 1528 1528 1528 1529 1529 1529 1529 1529 1530 1530 1530 1530 1530 1530 1530 1531 1531 1531 1531 1531 1531 1531 1531 1531 1531 1531 1531 1531 1531 1532 1532 1533 1533 1534 1534 1534 1535 1535 1535 1535 1535 1535 1535 1536 1536 1536 1536 1536 1537 1537 1537 1538 1538 1538 1538 1538
1526 1526 1526 1526 1526 1527 1527 1527 1527 1527 1527 1527 1527 1527 1527 1527 1527 1527 1528 1528 1528 1528 1528 1529 1529 1529 1529 1529 1529 1529 1529 1529 1530 1530 1530 1530 1530 1530 1530 1530 1530 1531 1531 1531 1531 1532 1532 1533 1533 1533 1533 1533 1534 1534 1533 1534 1534 1534 1535 1535 1536 1536 1536 1536 1536 1537 1536 1536 1536
1524 1525 1525 1525 1525 1526 1526 1526 1526 1526 1526 1526 1526 1526 1526 1526 1526 1526 1526 1527 1527 1527 1527 1527 1527 1527 1528 1528 1528 1528 1528 1528 1528 1528 1529 1529 1529 1529 1529 1529 1529 1530 1530 1530 1531 1531 1531 1531 1531 1531 1532 1532 1532 1533 1533 1533 1534 1534 1534 1535 1535 1535 1535 1535 1535 1536 1536 1535 1535
1523 1523 1523 1524 1524 1524 1524 1524 1525 1525 1525 1525 1525 1525 1525 1525 1525 1525 1525 1526 1526 1526 1526 1526 1526 1526 1526 1526 1527 1527 1527 1527 1527 1527 1527 1528 1528 1528 1528 1528 1528 1529 1529 1529 1530 1530 1530 1530 1530 1531 1531 1531 1531 1531 1532 1532 1532 1533 1533 1533 1533 1533 1534 1534 1534 1534 1534 1534 1534
1521 1522 1522 1522 1522 1523 1523 1523 1523 1523 1523 1523 1524 1524 1524 1524 1524 1524 1524 1524 1524 1525 1525 1525 1525 1525 1525 1525 1526 1526 1526 1526 1526 1526 1526 1526 1526 1527 1527 1527 1527 1528 1528 1528 1529 1529 1529 1529 1530 1530 1530 1530 1530 1530 1531 1531 1531 1531 1532 1532 1532 1532 1532 1532 1533 1533 1533 1533 1533
1520 1520 1521 1521 1521 1521 1521 1522 1522 1522 1522 1522 1522 1522 1522 1523 1523 1523 1523 1523 1523 1523 1523 1524 1524 1524 1524 1524 1524 1525 1525 1525 1525 1525 1525 1525 1526 1526 1526 1526 1526 1527 1527 1527 1527 1528 1528 1528 1528 1528 1529 1529 1529 1529 1529 1529 1530 1530 1530 1531 1531 1531 1531 1531 1531 1531 1531 1531 1531
1519 1519 1519 1520 1520 1520 1521 1521 1521 1521 1521 1521 1521 1521 1521 1521 1521 1522 1522 1522 1522 1522 1522 1522 1522 1523 1523 1523 1523 1523 1524 1524 1524 1524 1524 1524 1524 1525 1525 1525 1525 1526 1526 1526 1526 1526 1526 1527 1527 1527 1527 1528 1528 1528 1528 1528 1528 1529 1529 1529 1529 1530 1530 1530 1530 1530 1530 1530 1529
1517 1518 1518 1518 1519 1519 1519 1519 1520 1520 1520 1520 1520 1520 1520 1521 1521 1521 1521 1521 1521 1521 1521 1521 1521 1521 1522 1522 1522 1522 1522 1523 1523 1523 1523 1523 1523 1523 1524 1524 1524 1524 1525 1525 1525 1525 1525 1526 1526 1526 1526 1527 1527 1526 1527 1527 1527 1528 1528 1528 1528 1528 1528 1529 1529 1528 1528 1528 1528
1516 1516 1517 1517 1517 1518 1518 1518 1518 1518 1519 1519 1519 1519 1519 1519 1520 1520 1520 1520 1520 1520 1520 1520 1521 1521 1521 1521 1521 1521 1521 1522 1522 1522 1522 1522 1522 1522 1523 1523 1523 1523 1523 1523 1524 1524 1524 1524 1525 1525 1525 1526 1526 1526 1526 1526 1526 1526 1526 1526 1527 1527 1527 1527 1527 1527 1526 1526 1526
1515 1515 1516 1516 1516 1516 1516 1517 1517 1517 1517 1517 1518 1518 1518 1518 1519 1519 1519 1519 1519 1519 1519 1519 1520 1520 1520 1520 1520 1520 1520 1521 1521 1521 1521 1521 1521 1521 1521 1522 1522 1522 1522 1522 1523 1523 1523 1523 1524 1524 1524 1524 1525 1525 1525 1525 1525 1525 1525 1525 1525 1526 1526 1526 1526 1525 1525 1525 1525
1514 1514 1514 1514 1515 1515 1515 1515 1516 1516 1516 1516 1516 1517 1517 1517 1517 1518 1518 1518 1518 1518 1518 1518 1518 1519 1519 1519 1519 1519 1519 1519 1519 1520 1520 1520 1520 1520 1520 1521 1521 1521 1521 1521 1521 1522 1522 1522 1522 1522 1523 1523 1523 1523 1523 1524 1524 1524 1524 1524 1524 1524 1524 1524 1524 1524 1524 1523 1523
1512 1512 1513 1513 1513 1513 1514 1514 1514 1515 1515 1515 1515 1516 1516 1516 1516 1516 1517 1517 1517 1517 1517 1517 1517 1517 1518 1518 1518 1518 1518 1518 1518 1518 1519 1519 1519 1519 1519 1520 1520 1520 1520 1520 1521 1521 1521 1521 1521 1521 1521 1521 1522 1522 1522 1522 1522 1522 1522 1522 1523 1523 1522 1522 1522 1522 1522 1522 1522
1511 1511 1511 1511 1511 1512 1512 1512 1513 1513 1513 1514 1514 1514 1515 1515 1515 1515 1515 1516 1516 1516 1516 1516 1516 1516 1516 1517 1517 1517 1517 1517 1517 1517 1517 1517 1518 1518 1518 1518 1518 1519 1519 1519 1519 1519 1520 1520 1520 1520 1520 1520 1520 1520 1521 1521 1521 1521 1521 1521 1521 1521 1521 1521 1521 1521 1521 1521 1521
1509 1509 1510 1510 1510 1511 1511 1511 1511 1511 1512 1512 1513 1513 1513 1513 1514 1514 1514 1514 1514 1515 1515 1515 1515 1515 1516 1516 1516 1516 1516 1516 1516 1516 1516 1516 1516 1516 1517 1517 1517 1517 1517 1518 1518 1518 1518 1518 1518 1518 1518 1519 1519 1519 1519 1519 1519 1519 1519 1519 1519 1519 1519 1519 1519 1519 1519 1519 1519
1508 1508 1508 1508 1509 1509 1509 1510 1510 1510 1511 1511 1511 1511 1512 1512 1512 1512 1513 1513 1513 1513 1513 1513 1514 1514 1514 1514 1514 1515 1515 1515 1515 1515 1515 1515 1515 1515 1515 1515 1516 1516 1516 1516 1516 1516 1516 1516 1516 1517 1517 1517 1517 1517 1517 1517 1517 1517 1518 1518 1518 1518 1518 1518 1518 1518 1518 1518 1518
1506 1506 1507 1507 1507 1507 1508 1508 1508 1509 1509 1509 1510 1510 1510 1511 1511 1511 1511 1511 1511 1511 1512 1512 1512 1512 1513 1513 1513 1513 1513 1513 1513 1513 1514 1514 1514 1514 1514 1514 1514 1514 1514 1514 1514 1514 1515 1515 1515 1515 1515 1515 1515 1515 1516 1516 1516 1516 1516 1516 1516 1516 1516 1516 1516 1516 1516 1516 1516
1505 1505 1505 1505 1506 1506 1506 1506 1506 1507 1507 1508 1508 1508 1509 1509 1509 1509 1510 1510 1510 1510 1510 1510 1511 1511 1511 1511 1511 1511 1511 1512 1512 1512 1512 1512 1512 1512 1512 1512 1512 1512 1512 1513 1513 1513 1513 1513 1513 1513 1513 1513 1514 1514 1514 1514 1514 1515 1515 1515 1515 1515 1515 1515 1515 1515 1515 1515 1515
1503 1503 1503 1504 1504 1504 1504 1505 1505 1505 1506 1506 1506 1507 1507 1507 1507 1508 1508 1508 1508 1509 1509 1509 1509 1509 1509 1510 1510 1510 1510 1510 1511 1511 1511 1511 1511 1511 1511 1511 1511 1511 1511 1511 1511 1511 1511 1511 1511 1511 1511 1512 1512 1512 1512 1513 1513 1513 1513 1514 1514 1514 1514 1514 1514 1514 1514 1514 1514
1501 1501 1501 1502 1502 1502 1503 1503 1503 1504 1504 1505 1505 1505 1505 1506 1506 1506 1506 1506 1507 1507 1507 1507 1507 1507 1508 1508 1508 1508 1508 1509 1509 1509 1509 1509 1509 1509 1509 1509 1509 1509 1509 1509 1509 1509 1509 1510 1510 1510 1510 1511 1511 1511 1511 1511 1512 1512 1512 1512 1513 1513 1513 1513 1513 1513 1513 1513 1513
1500 1500 1500 1500 1500 1501 1501 1501 1501 1502 1502 1503 1503 1503 1504 1504 1504 1505 1505 1505 1505 1505 1506 1506 1506 1506 1506 1506 1506 1506 1507 1507 1507 1507 1507 1507 1507 1507 1507 1507 1507 1507 1507 1508 1508 1508 1508 1508 1509 1509 1509 1510 1510 1510 1510 1511 1511 1511 1511 1511 1511 1511 1512 1512 1512 1512 1512 1512 1512
1497 1497 1498 1498 1498 1499 1499 1499 1500 1500 1501 1501 1501 1502 1502 1502 1503 1503 1503 1503 1504 1504 1504 1504 1504 1504 1505 1505 1505 1505 1505 1505 1505 1506 1506 1506 1506 1506 1506 1506 1506 1506 1506 1506 1506 1507 1507 1507 1507 1508 1508 1508 1509 1509 1509 1510 1510 1510 1510 1510 1510 1511 1511 1511 1511 1511 1511 1511 1511
1496 1496 1496 1496 1496 1497 1497 1497 1498 1498 1499 1500 1500 1500 1501 1501 1501 1501 1502 1502 1502 1502 1502 1502 1503 1503 1503 1503 1503 1503 1503 1503 1504 1504 1504 1504 1504 1504 1504 1504 1505 1505 1505 1505 1506 1506 1506 1506 1506 1507 1507 1507 1508 1508 1508 1509 1509 1509 1509 1509 1509 1510 1510 1510 1510 1510 1510 1510 1510
1494 1494 1494 1495 1495 1495 1495 1495 1496 1496 1497 1498 1498 1499 1499 1499 1500 1500 1500 1500 1501 1501 1501 1501 1501 1501 1502 1502 1502 1502 1502 1502 1502 1502 1503 1503 1503 1503 1503 1503 1503 1504 1504 1504 1505 1505 1505 1506 1506 1506 1506 1507 1507 1507 1507 1508 1508 1508 1508 1508 1509 1509 1509 1509 1509 1509 1509 1510 1510
1492 1492 1492 1492 1492 1492 1493 1493 1494 1495 1495 1496 1496 1497 1497 1498 1498 1498 1499 1499 1499 1499 1499 1500 1500 1500 1500 1501 1501 1501 1501 1501 1501 1501 1502 1502 1502 1502 1502 1502 1503 1503 1503 1503 1504 1504 1504 1505 1505 1505 1506 1506 1506 1506 1507 1507 1507 1507 1507 1508 1508 1508 1508 1508 1509 1509 1509 1509 1509
1490 1491 1491 1490 1491 1491 1491 1491 1492 1493 1494 1494 1495 1496 1496 1496 1496 1497 1497 1497 1497 1498 1498 1498 1499 1499 1499 1499 1500 1500 1500 1500 1500 1501 1501 1501 1501 1501 1501 1502 1502 1502 1502 1503 1503 1504 1504 1504 1505 1505 1505 1505 1506 1506 1506 1506 1506 1507 1507 1507 1507 1508 1508 1508 1508 1509 1509 1509 1509
1489 1489 1489 1489 1489 1489 1489 1490 1491 1491 1492 1493 1493 1494 1494 1495 1495 1495 1496 1496 1496 1496 1497 1497 1497 1498 1498 1498 1498 1499 1499 1499 1500 1500 1500 1500 1500 1501 1501 1501 1501 1502 1502 1502 1503 1503 1503 1504 1504 1504 1505 1505 1505 1505 1506 1506 1506 1506 1506 1507 1507 1507 1508 1508 1508 1508 1508 1509 1509
1488 1487 1487 1487 1487 1487 1488 1488 1489 1490 1491 1491 1492 1492 1493 1493 1493 1494 1494 1494 1495 1495 1496 1496 1496 1497 1497 1497 1498 1498 1498 1498 1499 1499 1499 1499 1500 1500 1500 1501 1501 1501 1501 1502 1502 1502 1503 1503 1503 1504 1504 1504 1505 1505 1505 1506 1506 1506 1506 1507 1507 1507 1507 1508 1508 1508 1508 1508 1508
1486 1486 1486 1486 1486 1486 1486 1487 1488 1488 1489 1490 1490 1491 1491 1491 1492 1492 1493 1493 1493 1494 1494 1495 1495 1496 1496 1496 1497 1497 1497 1498 1498 1498 1498 1499 1499 1500 1500 1500 1501 1501 1501 1501 1502 1502 1503 1503 1503 1504 1504 1504 1505 1505 1505 1506 1506 1506 1506 1506 1507 1507 1507 1507 1507 1507 1507 1508 1508
1485 1485 1485 1485 1485 1485 1486 1486 1486 1487 1488 1488 1489 1489 1490 1490 1491 1491 1491 1492 1492 1493 1494 1494 1495 1495 1495 1496 1496 1496 1497 1497 1497 1498 1498 1498 1499 1499 1499 1500 1500 1501 1501 1501 1501 1502 1502 1503 1503 1504 1504 1504 1505 1505 1505 1505 1506 1506 1506 1506 1506 1507 1507 1507 1507 1507 1507 1507 1507
1484 1484 1484 1484 1484 1484 1485 1485 1486 1486 1486 1487 1487 1488 1489 1489 1490 1490 1491 1491 1492 1492 1493 1493 1494 1494 1495 1495 1495 1496 1496 1496 1497 1497 1497 1498 1498 1499 1499 1500 1500 1500 1501 1501 1501 1502 1502 1503 1503 1504 1504 1504 1505 1505 1505 1505 1506 1506 1506 1506 1506 1506 1506 1506 1506 1506 1506 1506 1506
1483 1483 1483 1483 1483 1483 1484 1484 1485 1485 1486 1486 1486 1487 1487 1488 1489 1489 1490 1491 1491 1492 1492 1493 1493 1493 1494 1494 1495 1495 1496 1496 1496 1497 1497 1498 1498 1498 1499 1499 1500 1500 1501 1501 1501 1502 1502 1503 1503 1504 1504 1504 1504 1505 1505 1505 1505 1505 1505 1506 1506 1506 1506 1506 1506 1506 1506 1506 1506
1482 1482 1482 1482 1482 1482 1483 1483 1484 1484 1485 1485 1486 1486 1487 1487 1488 1489 1489 1490 1491 1491 1491 1492 1492 1493 1493 1494 1494 1495 1495 1496 1496 1496 1497 1497 1498 1498 1499 1499 1500 1500 1501 1501 1501 1502 1502 1503 1503 1503 1504 1504 1504 1504 1504 1504 1505 1505 1505 1505 1505 1505 1505 1505 1505 1505 1506 1506 1506
1481 1481 1481 1481 1481 1482 1482 1482 1483 1483 1484 1484 1485 1486 1486 1487 1487 1488 1489 1489 1490 1491 1491 1491 1492 1492 1493 1493 1494 1494 1495 1495 1496 1496 1497 1497 1498 1498 1499 1499 1500 1500 1501 1501 1501 1502 1502 1502 1503 1503 1503 1503 1504 1504 1504 1504 1504 1504 1504 1505 1505 1505 1505 1505 1505 1505 1505 1505 1505
1480 1480 1480 1480 1481 1481 1481 1482 1482 1483 1483 1484 1484 1485 1485 1486 1487 1487 1488 1489 1489 1490 1490 1491 1491 1492 1492 1493 1493 1494 1495 1495 1496 1496 1496 1497 1498 1498 1499 1499 1500 1500 1501 1501 1501 1502 1502 1502 1502 1503 1503 1503 1503 1503 1503 1504 1504 1504 1504 1504 1504 1504 1504 1504 1504 1504 1504 1504 1504
1479 1479 1479 1479 1480 1480 1481 1481 1481 1482 1482 1483 1483 1484 1485 1485 1486 1487 1487 1488 1489 1489 1490 1490 1491 1491 1492 1493 1493 1494 1494 1495 1496 1496 1496 1497 1498 1498 1499 1499 1500 1500 1500 1501 1501 1501 1502 1502 1502 1502 1502 1503 1503 1503 1503 1503 1503 1503 1503 1503 1503 1504 1504 1504 1504 1504 1504 1504 1504
1478 1478 1478 1478 1479 1479 1480 1480 1481 1481 1482 1482 1483 1484 1484 1485 1486 1486 1487 1487 1488 1489 1489 1490 1491 1491 1492 1492 1493 1494 1494 1495 1496 1496 1496 1497 1498 1498 1499 1499 1500 1500 1500 1501 1501 1501 1501 1501 1502 1502 1502 1502 1502 1502 1502 1502 1502 1503 1503 1503 1503 1503 1503 1503 1503 1503 1503 1503 1503
1477 1477 1477 1478 1478 1478 1479 1480 1480 1481 1481 1482 1482 1483 1484 1484 1485 1486 1486 1487 1488 1488 1489 1490 1490 1491 1492 1492 1493 1494 1494 1495 1496 1496 1496 1497 1497 1498 1499 1499 1499 1500 1500 1500 1501 1501 1501 1501 1501 1501 1501 1501 1501 1502 1502 1502 1502 1502 1502 1502 1503 1503 1503 1503 1503 1503 1503 1503 1502
1476 1476 1476 1477 1477 1478 1478 1479 1479 1480 1481 1481 1482 1482 1483 1484 1485 1485 1486 1486 1487 1488 1489 1489 1490 1491 1491 1492 1493 1494 1494 1495 1495 1496 1496 1497 1497 1498 1498 1499 1499 1499 1500 1500 1500 1501 1501 1501 1501 1501 1501 1501 1501 1501 1501 1501 1501 1502 1502 1502 1502 1502 1503 1503 1503 1502 1502 1502 1501
1475 1475 1476 1476 1477 1477 1478 1478 1479 1480 1480 1481 1481 1482 1483 1483 1484 1485 1485 1486 1486 1487 1488 1489 1490 1491 1491 1492 1493 1494 1494 1495 1495 1496 1496 1496 1497 1497 1498 1498 1499 1499 1499 1500 1500 1500 1500 1500 1500 1500 1500 1500 1500 1501 1501 1501 1501 1501 1501 1502 1502 1502 1502 1502 1502 1502 1501 1501 1501
Wind_Speed
16 15 14 14 13 13 12 12 12 12 12 12 12 13 13 14 15 15 16 16 16 16 16 16 16 15 15 14 14 13 13 13 14 14 15 15 15 16 16 16 17 18 18 19 20 20 19 18 17 16 16 17 20 21 20 17 16 16 17 19 21 21 19 17 15 15 16 17 19
14 13 13 12 12 12 11 11 11 10 10 10 11 11 11 12 12 13 13 14 14 14 14 14 14 13 13 12 12 12 12 12 12 12 12 12 12 12 13 14 15 16 17 17 17 16 15 15 14 15 17 19 21 22 21 20 19 19 20 22 21 19 16 14 14 15 16 18 20
13 13 12 12 12 12 11 11 11 10 10 10 10 10 10 10 11 11 11 12 12 12 12 12 12 12 12 12 11 11 11 11 11 10 10 10 10 11 11 12 13 14 14 14 14 13 13 13 14 16 18 21 23 23 22 21 21 21 21 20 19 16 14 13 14 15 17 19 19
13 12 12 12 11 11 11 11 11 11 11 10 10 10 10 10 10 10 10 10 11 11 11 11 11 11 11 11 11 11 10 10 10 10 10 10 10 10 11 11 12 12 12 12 12 12 12 14 16 18 20 21 21 21 19 18 18 17 17 17 16 14 14 13 14 16 17 18 17
12 12 11 11 11 11 11 11 11 11 11 11 10 10 9 9 10 10 10 10 10 10 10 10 10 11 11 11 11 11 10 10 10 10 10 10 10 10 10 10 10 11 11 11 11 12 14 16 17 18 18 17 17 16 15 14 14 15 15 15 15 15 14 14 14 16 17 17 17
12 11 11 11 11 11 11 11 11 11 11 11 10 9 9 9 9 9 9 9 10 10 10 10 10 10 11 11 11 11 11 10 10 10 10 10 10 10 10 10 10 10 10 10 11 13 15 16 16 16 16 16 15 14 13 13 14 14 15 16 17 16 14 13 14 16 18 18 18
11 11 11 11 11 11 11 11 11 11 11 11 10 9 9 9 9 9 9 10 10 10 10 10 11 11 11 11 11 11 11 11 11 11 11 11 11 10 10 11 11 11 11 12 13 14 15 15 15 15 15 15 15 15 14 14 14 14 15 16 16 15 14 14 15 17 18 18 18
11 11 11 11 11 11 11 11 11 11 11 11 10 10 9 9 9 9 10 10 10 10 10 11 11 11 11 12 12 12 12 12 12 12 12 12 12 12 12 12 13 13 13 13 14 14 14 14 14 15 15 15 16 16 15 15 14 13 13 14 15 14 14 14 16 17 17 17 17
11 12 12 12 12 12 12 12 12 11 11 11 10 10 10 10 10 10 10 10 10 10 10 11 11 11 12 12 12 12 13 13 13 12 12 12 13 13 13 14 14 14 15 15 15 15 14 14 14 14 14 15 15 15 14 13 13 13 14 15 15 15 15 16 17 18 18 18 18
12 12 12 12 12 12 12 12 12 12 12 11 11 11 11 10 10 10 10 10 10 10 10 11 11 11 11 12 12 12 12 12 12 13 13 13 13 14 14 15 15 16 16 15 15 15 14 14 13 13 14 15 15 14 13 13 14 15 16 17 17 17 18 18 19 20 20 20 21
13 13 13 13 13 13 13 13 13 13 13 12 12 12 12 11 11 11 11 10 10 10 11 11 11 11 11 11 11 11 11 12 12 12 13 13 13 14 14 15 15 15 15 15 14 14 14 13 14 14 15 16 16 15 14 15 15 16 17 18 18 19 19 19 20 21 21 22 23
14 14 14 14 14 14 14 14 14 14 14 14 13 13 13 13 12 12 12 11 11 11 11 11 11 11 11 11 11 11 11 11 12 12 13 13 13 13 14 14 14 14 14 14 14 14 14 14 15 15 16 17 17 16 15 16 16 17 18 18 19 19 19 20 21 22 22 22 22
14 15 15 15 15 15 15 15 15 15 15 15 15 15 14 14 14 13 13 13 13 12 12 12 12 12 11 11 12 12 12 12 12 13 13 13 13 13 14 14 14 13 13 13 14 14 14 15 16 17 17 18 18 17 17 18 18 19 19 20 21 21 21 22 22 21 21 20 19
15 15 16 16 16 16 16 16 16 16 16 16 16 15 15 15 15 15 14 14 14 14 14 13 13 13 13 13 13 13 13 13 14 14 14 14 14 14 14 14 14 14 14 14 15 15 16 16 17 18 18 18 19 19 19 20 20 20 21 21 21 21 20 20 19 18 18 17 16
15 15 16 16 17 17 17 17 17 17 16 16 16 16 16 16 16 16 15 15 15 15 15 15 15 15 15 15 15 15 15 15 15 15 16 16 16 16 16 16 16 16 16 16 16 16 17 18 18 19 19 19 20 20 20 20 20 20 20 20 19 19 18 17 17 16 15 15 15
15 16 16 17 17 18 18 17 17 17 17 17 17 17 17 17 17 16 16 16 16 16 16 16 16 16 16 16 16 16 16 17 17 17 17 18 18 18 18 18 18 18 18 18 18 18 19 19 20 20 20 21 21 21 20 20 20 19 18 18 17 16 16 15 15 14 14 14 14
16 16 17 17 18 18 18 18 18 18 18 18 18 18 18 17 17 17 17 17 18 18 18 18 18 18 18 18 18 18 18 18 18 19 19 19 19 19 19 19 20 20 20 20 20 20 20 21 21 21 21 21 20 20 19 18 18 17 16 16 15 15 14 14 14 14 14 14 14
17 17 18 18 18 18 18 19 18 18 18 18 18 18 18 18 18 18 18 19 19 19 19 19 19 19 19 19 19 19 19 19 19 20 20 20 20 20 20 20 20 20 20 20 20 21 21 21 21 21 20 19 19 18 17 16 16 15 15 14 14 14 14 14 14 14 14 14 14
18 18 18 19 19 19 19 19 19 19 19 19 19 19 19 19 19 19 19 19 19 19 19 20 20 20 20 20 20 20 20 20 20 20 20 20 20 20 20 20 20 20 20 20 20 21 20 20 20 19 18 17 16 16 15 15 15 14 14 14 14 14 14 13 13 13 13 13 13
19 19 19 20 20 20 20 20 20 20 20 19 19 19 19 19 20 20 20 20 20 20 20 20 20 20 20 20 20 20 20 20 19 19 19 19 19 19 19 19 19 19 19 19 19 19 18 18 17 16 16 15 14 14 14 14 14 14 14 13 13 13 13 12 12 12 12 12 12
20 21 21 21 21 21 21 21 21 20 20 20 20 20 20 20 20 20 20 20 20 20 20 20 20 20 20 19 19 19 19 19 18 18 18 18 17 17 17 17 17 18 18 18 17 17 16 15 15 14 14 13 13 13 13 13 13 13 13 12 12 12 11 11 11 11 11 11 11
22 22 22 22 22 22 22 21 21 21 21 20 20 20 20 20 20 20 20 20 20 20 20 20 20 19 19 19 18 18 18 18 17 16 16 16 16 16 16 16 16 16 16 15 15 14 14 13 13 13 13 13 13 13 13 13 12 12 11 11 11 10 10 10 10 10 10 9 9
23 23 23 23 23 22 22 22 22 21 21 21 20 20 20 19 19 20 19 19 19 19 19 19 19 18 18 18 17 17 16 16 15 15 15 15 15 15 15 14 14 14 13 13 12 12 12 12 12 12 12 11 11 11 11 11 10 10 10 9 9 9 9 9 9 8 8 8 7
23 24 23 23 23 23 23 23 22 22 21 21 21 20 20 20 19 19 19 19 18 18 18 18 18 17 17 16 16 15 15 14 14 14 14 13 13 13 13 12 11 11 11 11 11 11 11 10 10 10 10 10 10 9 9 9 8 8 8 8 8 8 8 7 7 7 6 6 5
22 22 23 23 23 23 24 23 23 22 22 21 21 20 20 20 19 19 18 18 18 17 17 17 17 16 15 15 14 14 13 13 13 13 13 12 12 11 10 9 9 9 9 9 9 9 9 9 9 8 8 8 8 8 8 8 7 7 7 7 7 7 6 6 6 5 5 5 4
19 20 20 21 22 23 23 23 23 22 21 21 20 20 19 19 19 18 17 17 17 16 16 16 15 15 14 13 13 12 12 12 12 12 12 11 10 9 8 7 7 7 8 8 8 8 8 8 7 7 7 7 7 7 7 7 7 7 7 6 6 6 5 5 4 4 4 4 4
17 17 17 18 19 21 22 22 22 22 21 20 19 19 19 18 17 17 16 16 16 16 15 15 14 13 12 12 11 11 11 11 11 11 10 10 8 7 6 6 7 7 7 7 7 7 7 7 7 7 7 7 7 6 6 6 6 6 6 6 5 5 5 4 4 4 4 4 4
15 15 15 16 16 18 19 20 20 20 19 19 18 18 17 17 16 15 15 15 15 14 14 13 12 12 11 11 11 10 10 10 10 9 9 8 7 7 6 7 7 7 7 7 7 7 7 7 7 7 7 7 6 6 6 6 6 6 6 5 5 5 5 5 4 4 3 3 3
15 15 15 14 15 16 17 17 18 18 18 17 17 16 16 16 15 15 14 14 14 13 13 12 11 10 10 10 10 10 10 9 9 8 8 7 7 7 7 7 7 7 7 7 7 7 7 7 7 7 7 7 6 6 6 6 6 5 5 5 5 5 5 4 4 4 4 3 4
15 15 14 14 14 14 15 15 15 15 15 15 15 15 15 14 14 13 13 12 12 12 11 10 10 10 10 10 10 10 10 9 9 8 8 8 8 8 7 7 8 7 7 7 7 7 7 7 7 7 7 7 7 7 6 6 6 5 5 5 5 5 4 4 4 4 4 4 5
15 15 14 14 14 14 14 14 14 13 13 13 13 13 13 13 12 12 12 11 11 11 10 10 10 10 10 10 10 10 10 9 9 8 8 8 8 8 8 8 8 8 7 7 7 7 7 7 7 7 7 7 7 7 6 6 5 5 5 5 4 4 4 5 5 5 5 5 5
15 15 14 14 14 14 14 13 12 12 12 12 12 12 12 11 11 11 11 11 11 10 10 10 10 10 10 10 10 10 10 9 9 8 8 8 8 8 8 8 8 8 8 8 8 8 8 8 8 7 7 7 6 6 6 5 5 5 5 4 5 5 5 5 5 5 5 5 6
15 14 14 14 14 14 13 12 11 11 11 11 11 11 11 11 11 12 12 11 11 10 10 10 10 10 10 10 10 10 10 9 9 9 8 8 8 8 8 9 9 9 9 9 9 9 8 8 7 7 6 6 6 5 5 5 5 5 5 5 5 5 4 4 5 5 5 5 6
15 14 14 14 14 13 13 12 11 10 10 10 10 10 11 11 12 12 12 12 11 11 10 10 10 10 10 10 10 10 10 10 10 10 9 9 9 9 9 10 10 10 10 9 9 8 8 7 7 6 6 5 5 5 5 5 5 5 5 5 4 4 4 4 5 5 5 6 6
15 15 15 14 14 13 12 11 10 10 10 10 11 11 12 12 12 12 12 12 12 11 11 11 10 10 10 10 10 10 10 11 11 11 10 10 10 10 10 10 10 10 10 9 8 8 7 7 6 6 5 5 5 5 4 4 4 4 4 4 4 4 4 5 5 5 5 6 6
15 15 15 15 14 14 12 11 10 10 10 11 12 12 12 13 13 13 13 12 12 12 11 11 11 11 11 11 11 11 12 12 12 12 12 11 11 11 10 10 10 10 9 8 8 7 6 6 5 5 5 5 5 4 4 4 4 4 4 4 4 4 4 4 5 5 6 6 7
16 15 15 15 15 14 12 11 11 11 12 12 13 13 13 13 14 14 13 13 12 12 12 12 11 12 12 12 12 13 12 12 12 13 13 12 11 10 9 9 9 8 8 7 7 6 6 5 5 5 4 4 4 4 4 4 4 4 4 4 4 4 4 4 5 5 6 6 7
16 15 15 15 14 13 13 12 12 12 12 12 13 13 13 14 14 14 14 13 13 13 13 12 12 13 13 13 13 13 13 13 13 13 13 12 11 10 9 8 7 7 7 6 6 5 5 5 5 5 4 4 4 4 3 3 3 3 3 4 4 4 4 5 5 6 6 6 6
15 15 15 14 14 13 13 13 13 12 12 12 13 13 14 14 14 15 14 14 14 14 14 14 14 14 14 14 14 14 14 13 13 12 12 11 10 9 8 7 7 6 6 6 5 5 5 5 5 4 4 4 3 3 2 2 2 3 3 4 4 4 5 5 5 6 6 6 6
15 15 14 14 13 13 13 13 13 12 12 12 13 13 14 15 15 15 15 15 15 15 15 15 15 15 15 15 14 14 14 13 12 12 11 10 10 9 8 7 7 6 6 6 6 5 5 5 4 4 3 3 2 2 2 2 2 3 3 4 4 5 5 5 5 5 5 5 5
15 14 14 14 13 13 13 13 13 12 12 12 13 14 15 15 16 16 16 16 16 16 16 16 16 16 15 15 14 14 13 12 12 11 10 9 9 8 8 7 7 6 6 6 6 5 5 4 3 3 2 2 1 1 1 2 2 3 3 4 4 5 5 5 4 4 4 4 4
Wind_Direction
251 252 254 255 257 258 260 262 263 264 264 263 263 262 261 260 260 261 262 262 263 264 265 265 265 265 264 264 262 260 258 256 255 254 253 252 252 252 252 253 254 254 254 255 255 256 257 257 256 253 249 247 248 248 245 243 243 246 248 250 251 252 251 250 252 257 263 267 268
248 250 254 256 258 261 263 265 267 269 269 268 266 264 263 261 261 262 262 263 263 263 264 264 264 264 264 263 261 259 257 255 254 253 252 251 250 250 249 250 250 250 251 251 251 251 253 255 256 254 250 249 247 245 243 241 241 242 244 245 246 245 245 247 254 262 266 266 262
252 256 258 261 263 264 266 269 272 274 275 274 271 268 266 264 264 263 263 262 262 262 262 262 263 263 263 261 260 257 256 255 255 254 253 250 249 248 248 247 248 247 246 245 245 247 251 255 256 253 249 248 246 244 242 241 241 242 243 244 243 242 243 250 258 264 264 260 256
259 261 263 265 265 266 267 269 272 275 276 275 273 270 268 266 264 263 262 261 260 260 259 260 261 261 261 259 258 256 255 255 255 254 253 251 249 248 247 246 245 243 241 240 242 246 250 251 249 247 246 247 249 251 251 252 252 251 249 248 246 246 249 255 262 264 262 258 258
265 266 266 266 265 265 266 268 270 273 274 273 271 269 267 264 263 262 260 259 257 256 257 257 258 258 258 256 255 254 254 254 253 252 252 250 248 248 247 246 244 241 238 239 243 246 246 243 242 244 248 250 252 254 257 261 262 260 256 252 249 248 250 255 261 263 264 265 269
269 269 269 268 267 267 267 268 269 270 271 270 270 268 266 262 260 258 256 255 254 254 254 254 254 254 254 253 252 252 251 251 251 249 249 248 246 245 244 243 243 242 241 240 243 245 244 243 245 249 251 251 249 249 250 253 254 254 253 252 248 247 249 256 262 265 266 268 269
270 270 270 269 268 268 267 267 267 268 268 268 268 267 264 261 258 256 254 253 252 251 250 250 250 251 251 250 250 249 249 249 248 247 246 244 243 241 240 241 242 241 240 240 241 244 246 248 251 252 251 249 246 245 245 246 247 248 249 251 249 250 255 264 266 264 261 259 259
267 267 267 267 267 266 266 266 266 266 266 266 265 264 262 259 257 255 253 252 251 250 249 248 248 248 248 248 249 248 249 248 248 247 246 243 242 240 240 240 241 241 241 242 244 246 250 253 253 252 250 249 246 244 243 243 247 249 250 251 251 253 258 264 264 261 257 255 255
263 263 262 262 262 262 262 262 263 263 263 262 261 260 258 257 256 254 252 251 250 249 249 248 248 248 248 249 249 250 250 250 250 250 248 246 244 242 241 241 242 243 245 248 250 253 255 256 255 255 254 252 247 243 242 247 252 255 253 252 252 254 256 257 256 256 256 258 261
258 257 257 256 256 256 257 258 258 258 258 257 257 256 255 255 254 253 252 251 251 250 250 249 249 249 250 251 251 252 252 253 253 253 251 249 248 246 245 245 246 247 249 252 254 256 258 258 257 258 258 256 252 248 248 252 256 256 253 251 251 252 252 250 251 253 257 263 269
252 252 252 251 252 252 252 253 253 253 253 253 253 252 252 252 251 251 251 250 250 251 250 251 251 252 252 253 254 254 254 254 254 254 253 252 250 250 250 251 252 253 254 255 256 258 259 260 260 260 258 255 253 251 250 251 251 250 248 246 247 247 249 251 254 258 264 269 273
247 248 248 248 249 249 249 249 249 250 250 250 250 250 250 250 250 250 250 250 251 251 251 251 252 253 253 254 254 254 254 254 253 253 253 253 252 252 252 253 255 257 258 258 258 258 258 258 258 256 254 251 250 249 250 251 250 249 249 250 253 256 259 262 265 267 269 271 272
245 245 246 246 247 247 247 247 247 248 248 249 249 250 250 250 250 250 250 251 251 251 251 251 251 251 252 253 254 254 254 254 254 254 254 254 254 254 254 254 255 256 256 255 255 254 252 252 251 249 248 248 250 253 255 257 257 258 259 262 264 266 267 268 269 269 269 270 269
244 244 244 246 246 247 247 247 247 247 248 249 250 250 251 251 251 251 251 251 251 251 252 252 252 252 252 253 254 254 255 255 256 256 257 257 256 256 256 255 255 255 254 254 253 252 251 251 251 250 251 253 256 259 261 262 263 264 265 266 266 267 267 267 267 266 266 265 264
245 245 245 246 247 247 247 247 248 248 248 249 249 250 250 251 251 251 251 251 250 251 251 252 252 252 253 254 254 255 256 257 257 258 258 259 259 259 258 258 257 256 256 256 256 255 255 256 257 258 259 261 263 265 266 267 267 267 267 266 266 265 264 263 262 261 260 259 259
247 247 247 248 248 249 249 249 249 249 249 249 249 250 250 250 251 251 250 250 250 251 251 252 252 253 254 254 255 256 256 257 258 258 259 259 260 261 261 261 261 261 261 261 261 261 261 262 263 264 265 267 268 269 269 268 267 267 266 265 264 261 259 258 256 254 253 253 255
250 250 250 250 250 251 251 251 251 250 250 249 249 249 250 250 250 250 250 250 251 252 252 253 254 255 255 256 256 257 257 257 258 259 259 260 261 262 263 264 265 265 266 266 266 266 266 266 267 267 268 269 269 268 267 266 265 264 262 260 258 256 253 252 251 250 250 252 254
254 253 253 253 253 253 253 252 252 251 250 250 250 250 250 250 250 251 251 251 252 253 254 255 256 257 258 258 258 259 259 259 260 260 261 262 263 264 265 266 267 268 268 268 268 269 269 269 269 269 269 268 267 266 264 262 259 257 256 253 251 250 249 249 249 250 252 255 258
257 256 256 255 254 254 254 253 253 252 251 250 250 250 251 251 251 251 252 252 254 255 256 257 258 259 260 260 261 261 261 261 262 263 264 265 265 266 267 267 268 268 268 268 268 269 269 269 269 268 267 265 263 261 258 255 253 251 249 247 246 246 247 248 250 253 256 260 263
260 259 257 256 255 254 254 253 252 252 251 251 251 251 251 252 252 253 254 254 255 256 258 259 260 261 262 262 263 263 263 264 265 266 267 267 267 267 267 267 267 267 267 267 267 267 267 266 265 264 262 260 256 253 250 248 246 245 244 244 245 246 248 250 253 257 259 262 264
261 259 258 256 255 254 253 253 252 252 252 252 251 251 252 253 254 255 255 257 257 258 260 261 262 263 264 265 265 266 267 267 268 268 268 268 268 267 267 266 266 265 266 266 265 264 263 262 260 258 256 253 249 246 244 242 241 241 242 244 246 248 250 252 255 258 260 262 263
260 258 257 256 255 254 253 253 253 252 252 252 252 253 253 254 255 257 257 258 260 261 262 263 265 266 267 268 269 269 270 270 270 269 269 268 268 268 268 268 267 265 264 263 261 259 257 256 254 253 250 247 244 242 241 241 241 241 243 244 246 248 250 252 253 255 257 258 260
260 258 257 256 255 254 253 253 252 252 252 252 253 253 254 255 257 258 259 260 262 263 264 265 266 268 269 270 270 271 271 271 270 269 269 270 270 271 272 271 269 265 262 258 255 253 251 250 249 247 245 242 240 239 239 238 239 240 241 243 245 246 247 248 249 250 251 252 253
260 259 258 257 256 254 253 252 252 251 251 252 253 254 255 256 257 259 260 262 263 264 265 266 268 269 270 270 270 269 268 268 267 268 270 272 274 275 276 273 268 261 256 253 251 249 247 244 242 240 238 236 235 233 233 233 233 235 236 238 240 240 240 240 240 241 240 239 238
262 261 260 258 256 254 252 251 251 251 251 252 253 254 256 257 258 260 261 263 264 264 265 266 267 268 268 267 265 264 264 263 264 266 269 273 276 277 274 268 260 252 249 247 245 242 240 236 232 229 228 227 225 225 225 225 226 227 228 229 230 230 229 227 225 224 221 217 212
265 264 262 259 256 254 252 251 250 250 251 252 254 255 257 258 258 260 261 262 263 263 264 265 265 265 263 261 259 258 258 260 262 265 268 271 273 270 263 253 244 240 239 237 234 231 227 224 220 218 217 216 216 217 218 218 218 218 218 217 216 213 208 205 201 200 199 197 195
270 268 264 261 257 255 253 251 250 250 251 252 255 256 257 257 258 259 260 260 261 261 261 262 261 259 257 254 252 252 254 257 261 263 264 263 259 251 239 231 228 228 226 224 220 218 215 213 211 210 209 208 207 207 207 207 207 206 204 200 196 192 185 180 178 179 185 190 194
275 272 268 263 259 256 254 252 250 250 251 252 254 255 255 256 256 257 257 257 257 258 258 256 255 252 249 246 245 247 250 254 256 255 253 247 239 229 220 218 218 217 215 212 210 208 208 207 205 203 201 199 196 194 193 191 189 188 185 182 178 176 174 173 174 179 188 201 213
274 271 266 261 257 255 254 253 251 251 251 251 251 251 252 252 252 252 252 252 253 253 251 249 247 243 240 239 240 243 244 243 242 239 234 226 219 214 211 210 210 209 207 206 203 202 201 199 197 192 189 186 183 180 178 177 175 174 174 174 174 176 179 184 192 201 213 225 239
268 265 260 255 253 253 253 253 251 250 250 249 248 247 247 247 246 245 244 244 244 245 244 241 237 234 232 234 235 234 231 229 226 222 216 210 205 203 203 203 202 202 201 199 196 193 190 186 181 177 174 171 169 169 169 169 171 173 175 180 184 190 198 207 217 227 237 247 255
262 258 253 249 248 249 251 251 250 249 247 245 243 241 240 238 235 233 231 232 233 235 235 232 228 226 228 229 227 223 219 217 213 208 203 199 196 195 195 195 194 193 191 188 183 179 175 171 168 166 164 164 165 167 169 173 177 184 190 198 206 214 223 230 237 244 251 255 259
255 252 247 244 244 247 249 249 247 244 242 239 236 233 230 227 223 219 219 220 222 224 224 222 220 221 222 222 219 215 211 206 201 196 192 189 187 186 186 185 183 181 178 174 170 167 165 163 163 162 163 166 169 173 179 186 194 203 212 220 227 233 238 241 246 249 252 254 256
248 245 242 240 241 245 247 246 243 239 234 231 227 223 219 216 213 210 210 211 212 213 213 214 213 212 212 213 211 207 202 196 190 184 181 178 177 177 177 175 172 170 167 164 162 161 161 162 164 167 170 175 180 187 196 204 213 221 228 233 237 240 242 243 244 246 248 250 252
241 239 237 237 239 242 243 242 237 232 226 220 217 213 210 207 204 203 203 205 206 206 207 207 205 204 203 202 199 196 191 186 180 175 170 168 168 168 168 166 164 162 160 159 160 161 164 167 171 177 182 189 196 202 210 217 224 229 232 235 238 239 240 241 241 243 246 249 253
234 232 232 233 236 239 239 235 229 223 216 210 207 205 203 200 199 199 200 202 202 202 202 202 200 197 195 192 189 185 181 176 172 168 164 161 160 160 161 161 160 159 159 160 163 167 172 176 182 188 195 201 207 213 217 223 225 229 232 234 237 239 241 243 245 248 250 253 256
229 229 230 232 234 235 234 227 220 213 208 204 202 200 199 197 197 197 199 200 199 199 197 196 194 191 187 184 181 177 174 170 166 163 159 157 156 157 159 160 160 160 161 164 169 174 180 186 191 198 204 210 215 219 222 225 228 233 237 240 243 245 248 250 252 254 256 258 258
227 229 230 232 233 232 228 221 212 206 203 202 201 200 199 197 196 196 196 196 195 194 193 192 189 185 182 178 174 172 169 167 164 160 157 155 155 157 160 163 164 164 166 170 175 180 186 192 198 204 210 215 218 222 227 231 236 241 246 249 253 257 260 261 262 262 261 261 261
224 228 230 232 232 229 223 216 209 205 202 202 201 201 199 198 195 193 192 191 189 187 187 186 182 178 175 172 170 168 167 165 162 160 157 156 157 159 163 168 169 169 170 174 178 183 189 195 201 208 213 215 219 224 230 236 245 253 259 262 265 267 269 268 266 265 264 264 266
223 227 229 230 229 225 219 213 208 205 204 203 202 201 199 196 193 189 187 185 182 180 180 178 175 172 170 168 167 165 164 163 161 160 159 158 158 161 165 171 173 174 174 177 180 185 191 196 202 207 210 214 218 226 237 248 258 265 269 270 270 269 269 267 266 266 267 270 273
222 225 226 226 225 222 217 212 208 206 206 205 203 200 197 192 188 185 183 180 177 175 174 172 170 168 166 164 163 164 163 162 161 160 160 159 160 162 166 171 175 178 179 180 182 186 190 194 199 202 205 210 218 232 250 262 268 270 270 269 267 267 266 265 264 266 270 275 281
220 222 222 222 221 219 216 212 208 206 205 204 202 198 193 188 184 181 179 177 174 171 169 168 166 165 163 162 162 162 163 162 161 160 160 160 163 165 168 172 177 180 182 182 183 184 186 189 190 193 196 202 215 234 253 266 267 265 265 265 265 264 265 267 268 270 272 276 282